Stainless Steels 304 Sheets Export from India

Stainless Steels 304 Sheets

Stainless Steels 304 Sheets export data

Date HS Code Product Description Origin Port Destination Port Quantity Value (INR in Million) Unit Per Unit (INR)
2016-05-16 72192212 HOT ROLLED STAINLESS STEEL WIDE SHEETS (HAVING NI>8%) 10MMX1500MMX6000 - 304/NO1/TRIM EDGE FR.PR.SS.WIDT.600MM Vizac Sea St Petersburg (Ex Le 11 1.105 MTS 100452.0
2016-05-16 72192212 HOT ROLLED STAINLESS STEEL WIDE SHEETS (HAVING NI>8%) 8MMX1500MMX6000 - 304/NO1/TRIM EDGE FR.PR.SS.WIDT.600MM Vizac Sea St Petersburg (Ex Le 11 1.1219 MTS 101992.0
2016-05-16 72192320 HOT ROLLED STAINLESS STEEL WIDE SHEETS (HAVING NI>8%) 3MMX1250MMX2500 - 304/NO1/TRIM EDGE FR.PR.SS.WIDT.600MM Vizac Sea St Petersburg (Ex Le 7 0.7409 MTS 105839.0
2016-05-16 72199011 COLD ROLLED STAINLESS STEEL WIDE SHEETS(HAVING NI>8%) 5MMX1500MMX6000 - 304/2B/TRIM EDGE FR.PR.SS.WIDT.600MM Vizac Sea St Petersburg (Ex Le 6 0.6733 MTS 112209.0
2016-05-16 72199012 COLD ROLLED STAINLESS STEEL WIDE SHEETS(HAVING NI>8%) 3MMX1250MMX2500 - 304/2B/TRIM EDGE FR.PR.SS.WIDT.600MM Vizac Sea St Petersburg (Ex Le 5 0.5481 MTS 109620.0
2016-05-17 72192212 HOT ROLLED STAINLESS STEEL WIDE SHEETS (HAVING NI>8%) 5MMX1250MMX6000 - 304/NO1/TRIM EDGE FR.PR.SS.WIDT.600MM Vizac Sea St Petersburg (Ex Le 5 0.551 MTS 110204.0
2016-05-17 72201229 STAINLESS STEEL SHEET/COIL 304 GRADE SIZE : 0.18MM X 4.80MM Nhava Sheva Sea Dammam 1550 0.3981 KGS 256.0
2016-05-23 72192320 HOT ROLLED STAINLESS STEEL SHEETS PRIMEQUALITY SEPC. 3.000MM X 1220MM X 2.440 304/NO1/TRIM EDGE Garhi Harsaru - Gurgaon ICD Jeddah 57 6.1528 MTS 107943.0
2016-05-23 72192320 HOT ROLLED STAINLESS STEEL SHEETS PRIMEQUALITY SEPC. 4.000MM X 1220MM X 2.440 304/NO1/TRIM EDGE Garhi Harsaru - Gurgaon ICD Jeddah 17 1.8325 MTS 107795.0
2016-05-25 72199013 SS304 STAINLESS STEEL SHEETS C R STAINLESS STEEL SHEETS PRIME QUALITY SPEC. 1.500MM X 1220MM X 2,440 - 304 / 2B / TRIM Nhava Sheva Sea Jeddah 20 2.3031 MTS 115154.0
2016-05-27 72192212 HOT ROLLED STAINLESS STEEL WIDE SHEETS (HAVING NI>8%) 10MMX1250MMX2500 - 304/NO1/TRIM EDGE FR.PR.SS.WIDT.600MM Vizac Sea El Iskandariya (= Al 5 0.514 MTS 102798.0
2016-05-27 72192212 HOT ROLLED STAINLESS STEEL WIDE SHEETS (HAVING NI>8%) 10MMX1500MMX6000 - 304/NO1/TRIM EDGE FR.PR.SS.WIDT.600MM Vizac Sea El Iskandariya (= Al 6 0.6802 MTS 113360.0
2016-05-27 72192212 HOT ROLLED STAINLESS STEEL WIDE SHEETS (HAVING NI>8%) 8MMX1500MMX6000 - 304/NO1/TRIM EDGE FR.PR.SS.WIDT.600MM Vizac Sea El Iskandariya (= Al 11 1.2042 MTS 109474.0
2016-05-28 72192212 HOT ROLLED STAINLESS STEEL WIDE SHEETS (HAVING NI>8%) 6MMX1524MMX6096 - 304/NO1/TRIM EDGE FR.PR.SS.WIDT.600MM Vizac Sea Surabaya 22 2.4141 MTS 109731.0
2016-06-01 84219900 STAINLESS STEEL 304 GRADE PERFORATED SHEETS (CENTRIFUGAL MACHINE PARTS 500 X 2760 MM SS 304 Patparganj Karachi 88 0.1752 PCS 1990.0
2016-06-03 72199090 STAINLESS STEEL METALLIC SHEET TO ASTM A240 GR. TP 304, HOT ROLLED. SIZE: 1 MTRX 2 MTR X 6 MM THK Nhava Sheva Sea Dammam 7 0.1857 NOS 26526.0
2016-06-04 72192212 HOT ROLLED STAINLESS STEEL WIDE SHEETS (HAVING NI>8%) 6MMX1500MMX6000 - 304/NO1/TRIM EDGE FR.PR.SS.WIDT.600MM Vizac Sea St Petersburg (Ex Le 5 0.5385 MTS 107694.0
2016-06-04 72192419 STAINLESS STEEL SHEET, SSTL 304 SHIM SIZE: 0.10 MM X 1000 MM X 1000 MM REEL Bombay Air Cargo RIYADH 3 0.0052 NOS 1749.0
2016-06-04 72192419 STAINLESS STEEL SHEET, SSTL 304 SHIM SIZE: 0.20 MM X 1000 MM X 1000 MM REEL Bombay Air Cargo RIYADH 6 0.0138 NOS 2296.0
2016-06-04 72192419 STAINLESS STEEL SHEET, SSTL 304 SHIM SIZE: 0.50 MM X 1000 MM X 1000 MM REEL Bombay Air Cargo RIYADH 3 0.0079 NOS 2624.0
2016-06-07 72199013 COLD ROLLED STAINLESS STEEL WIDE SHEETS(HAVING NI>8 %) 0.8MMX1250MMX2500 - 304/2B/TRIM EDGE FR.PR.SS.WIDT.600MM Vizac Sea St Petersburg (Ex Le 4 0.4924 MTS 123108.0
2016-06-07 72199013 COLD ROLLED STAINLESS STEEL WIDE SHEETS(HAVING NI>8 %) 1.0MMX1250MMX2500 - 304/2B/TRIM EDGE FR.PR.SS.WIDT.600MM Vizac Sea St Petersburg (Ex Le 8 0.8854 MTS 110670.0
2016-06-08 72199013 C R STAINLESS STEEL SHEETS PRIME QUALITYSPEC. 0.800MM X 1000MM X 2.000-304/2B/TRIM EDGE Garhi Harsaru - Gurgaon ICD St Petersburg (Ex Le 5 0.574 MTS 114795.0
2016-06-15 72192212 HOT ROLLED STAINLESS STEEL WIDE SHEETS (HAVING NI>8%) 6.000MMX1219MMX2438 -304/NO1/TRIM EDGE.FR.PR.SSWIDTOF600MM Vizac Sea Surabaya 42 4.5761 MTS 108955.0
2016-06-15 72192212 HOT ROLLED STAINLESS STEEL WIDE SHEETS (HAVING NI>8%) 8.000MMX1219MMX2438 -304/NO1/TRIM EDGE.FR.PR.SSWIDTOF600MM Vizac Sea Surabaya 17 1.8162 MTS 106834.0
2016-06-21 72192212 HOT ROLLED STAINLESS STEEL WIDE SHEETS (HAVING NI>8%) 10MMX1500MMX6000 - 304/NO1/TRIM EDGE FR.PR.SS.WIDT.600MM Vizac Sea Alexandra(Egypt) 19 2.0697 MTS 108931.0
2016-06-21 72192212 HOT ROLLED STAINLESS STEEL WIDE SHEETS (HAVING NI>8%) 8MMX1250MMX2500 - 304/NO1/TRIM EDGE FR.PR.SS.WIDT.600MM Vizac Sea Alexandra(Egypt) 7 0.756 MTS 107995.0
2016-06-21 72192212 HOT ROLLED STAINLESS STEEL WIDE SHEETS (HAVING NI>8%) 8MMX1500MMX6000 - 304/NO1/TRIM EDGE FR.PR.SS.WIDT.600MM Vizac Sea Alexandra(Egypt) 21 2.1814 MTS 103876.0
2016-06-24 84135090 STAINLESS STEEL 304 (FABRICATED SHEET METAL) SUBMERSIBLE ONLY PUMP MODEL:AM-46 STAGE:12 DISCHARGE HEAD 4" TPI:11 TPI AS Sabarmati ICD Valencia 2 0.0427 NOS 21327.0
2016-06-27 72199013 COLD ROLLED STAINLESS STEEL WIDE SHEETS(HAVING NI>8%) 1.500MMX1524MMX3048 -304/2B/TRIM EDGE.FR.PR.SSWIDTOF600MM Vizac Sea Buenaventura 13 1.4095 MTS 108420.0
2016-06-27 72199013 COLD ROLLED STAINLESS STEEL WIDE SHEETS(HAVING NI>8%) 1.900MMX1524MMX3048 -304/2B/TRIM EDGE.FR.PR.SSWIDTOF600MM Vizac Sea Buenaventura 18 1.9137 MTS 106316.0
2016-06-28 72193320 STAINLESS STEEL CR COILS/ SHEETS PRIME QUALITY SPEC 1.500MM X 1000MMX COIL-304/NO4/ TRIM EDGE Garhi Harsaru - Gurgaon ICD Bandar Abbas 10 1.2167 MTS 121669.0

Related products

Stainless Steels 304 Sheets Trade Data - Indian Ports

S. No Product Product Code Quantity Value (INR in Million) Unit Origin Port Destination Port
C R STAINLESS STEEL SHEETS PRIME QUALITYSPEC. 1.500MM X 1000MM X 2,000 - 304 /2B / TRIM EDGE 72199013 14 1.567 MTS Nhava Sheva Sea St Petersburg (Ex Le
COLD ROLLED STAINLESS STEEL WIDE SHEETS(HAVING NI>8%) 2MMX1500MMX3000 - 304/2B/TRIM EDGE FR.PR.SS.WIDT.600MM 72199013 5 0.5688 MTS Vizac Sea St Petersburg (Ex Le
STAINLESS STEEL 304 GRADE PERFORATED SHEETS 2MTR X 1 MTR X 0.50 MM THICKNESS X HOLE 0.8 MM 72199090 6 0.0292 PCS Nhava Sheva Sea Jebel Ali
STAINLESS STEEL 304 GRADE PERFORATED SHEETS 2MTR X 1 MTR X 0.80 MM THICKNESS X HOLE 1.0 MM 72199090 10 0.075 PCS Nhava Sheva Sea Jebel Ali
STAINLESS STEEL 304 GRADE PERFORATED SHEETS 2MTR X 1 MTR X 0.80 MM THICKNESS X HOLE 1.25 MM 72199090 6 0.0486 PCS Nhava Sheva Sea Jebel Ali
STAINLESS STEEL 304 GRADE PERFORATED SHEETS 2MTR X 1 MTR X 1 MM THICKNESS X HOLE1.5 MM 72199090 10 0.089 PCS Nhava Sheva Sea Jebel Ali
STAINLESS STEEL 304 GRADE PERFORATED SHEETS 2MTR X 1 MTR X 1 MM THICKNESS X HOLE2 MM 72199090 6 0.0486 PCS Nhava Sheva Sea Jebel Ali
STAINLESS STEEL 304 GRADE PERFORATED SHEETS 2MTR X 1 MTR X 1 MM THICKNESS X HOLE2.50 MM 72199090 4 0.026 PCS Nhava Sheva Sea Jebel Ali
STAINLESS STEEL 304 GRADE PERFORATED SHEETS 2MTR X 1 MTR X 1 MM THICKNESS X HOLE3 MM 72199090 6 0.039 PCS Nhava Sheva Sea Jebel Ali
HR & CR STAINLESS STEEL SHEETS PRIME QUALITY SPEC. 3.000MM X 1000MM X 2.000-304/2B/TRIM EDGE 72199012 4 0.4891 MTS Garhi Harsaru - Gurgaon ICD St Petersburg (Ex Le
HR & CR STAINLESS STEEL SHEETS PRIME QUALITY SPEC. 1.000MM X 1000MM X 2.000-304/2B/TRIM EDGE 72199013 9 1.0633 MTS Garhi Harsaru - Gurgaon ICD St Petersburg (Ex Le
HR & CR STAINLESS STEEL SHEETS PRIME QUALITY SPEC. 1.000MM X 1250MM X 2.500-304/2B/TRIM EDGE 72199013 12 1.4182 MTS Garhi Harsaru - Gurgaon ICD St Petersburg (Ex Le
HR & CR STAINLESS STEEL SHEETS PRIME QUALITY SPEC. 2.000MM X 1000MM X 2.000-304/2B/TRIM EDGE 72199013 8 0.9533 MTS Garhi Harsaru - Gurgaon ICD St Petersburg (Ex Le
HOT ROLLED STAINLESS STEEL WIDE SHEETS(HAVING NI>8%)10.000MMX1500MMX6000- 304/NO1/TRIM EDGE.FR.PR.SSWIDTOF600MM 72192212 10 1.1282 MTS Vizac Sea St Petersburg (Ex Le
HOT ROLLED STAINLESS STEEL WIDE SHEETS(HAVING NI>8%)5.000MMX1500MMX6000- 304/NO1/TRIM EDGE.FR.PR.SSWIDTOF600MM 72192212 10 1.1082 MTS Vizac Sea St Petersburg (Ex Le
HOT ROLLED STAINLESS STEEL WIDE SHEETS(HAVING NI>8%)6.000MMX1500MMX6000- 304/NO1/TRIM EDGE.FR.PR.SSWIDTOF600MM 72192212 12 1.4144 MTS Vizac Sea St Petersburg (Ex Le
HOT ROLLED STAINLESS STEEL WIDE SHEETS(HAVING NI>8%)8.000MMX1500MMX6000- 304/NO1/TRIM EDGE.FR.PR.SSWIDTOF600MM 72192212 9 1.0337 MTS Vizac Sea St Petersburg (Ex Le
HOT ROLLED STAINLESS STEEL WIDE SHEETS(HAVING NI>8%)3.000MMX1500MMX6000- 304/NO1/TRIM EDGE.FR.PR.SSWIDTOF600MM 72192320 5 0.5495 MTS Vizac Sea St Petersburg (Ex Le
HOT ROLLED STAINLESS STEEL WIDE SHEETS(HAVING NI>8%)4.000MMX1500MMX6000- 304/NO1/TRIM EDGE.FR.PR.SSWIDTOF600MM 72192320 32 3.5964 MTS Vizac Sea St Petersburg (Ex Le
CR SHEET OF STAINLESS STEEL (MADE FROM -S.S. 304 2B FINISH) ABDECKPLATTE SCHR QUADRO 6., ARTICLES SUITABLE FOR FURNITUR 83024200 160000 0.5747 PCS Nhava Sheva Sea Hamburg
HOT ROLLED STAINLESS STEEL WIDE SHEETS (HAVING NI>8%) 10MMX1500MMX6000 - 304/NO1/TRIM EDGE FR.PR.SS.WIDT.600MM 72192212 5 0.5629 MTS Vizac Sea St Petersburg (Ex Le
HOT ROLLED STAINLESS STEEL WIDE SHEETS (HAVING NI>8%) 5MMX1500MMX6000 - 304/NO1/TRIM EDGE FR.PR.SS.WIDT.600MM 72192212 7 0.7353 MTS Vizac Sea St Petersburg (Ex Le
HOT ROLLED STAINLESS STEEL WIDE SHEETS (HAVING NI>8%) 8MMX1500MMX6000 - 304/NO1/TRIM EDGE FR.PR.SS.WIDT.600MM 72192212 5 0.516 MTS Vizac Sea St Petersburg (Ex Le
HOT ROLLED STAINLESS STEEL WIDE SHEETS (HAVING NI>8%) 3MMX1500MMX6000 - 304/NO1/TRIM EDGE FR.PR.SS.WIDT.600MM 72192320 4 0.4361 MTS Vizac Sea St Petersburg (Ex Le
CR & HR STAINLESS STEEL SHEETS PRIME QUALITY SPEC. 1.000MM X 1250MM X 2.500-304/2B/ TRIM EDGE 72199013 5 0.559 MTS Garhi Harsaru - Gurgaon ICD St Petersburg (Ex Le

Looking to export Stainless Steels 304 Sheets from India?

With end to end global trade solutions from Connect2India, we enable Indian SMEs to start and grow their business globally

The following graphs and table will provide data on Stainless Steels 304 Sheets export based on different Indian ports, top importing ports and top export shipments of Stainless Steels 304 Sheets from India.

There are about 12 top exporting ports in India which trade Stainless Steels 304 Sheets from India, Vizac Sea exports the majority of Stainless Steels 304 Sheets shipments from India with the share of 51.0% , followed by Nhava Sheva Sea with 21.0%.

Moving to top importing ports for Stainless Steels 304 Sheets from India. St Petersburg (Ex Le port solely imports 159 shipments of Stainless Steels 304 Sheets from India and holds the largest share of 55.0%.

Looking to arrange Stainless Steels 304 Sheets export order to verified buyers across the globe?

Graphical representation for Stainless Steels 304 Sheets export

Stainless Steels 304 Sheets - Recent export data

How connect2india can help you export Stainless Steels 304 Sheets?

Connect2India can help you analyse Stainless Steels 304 Sheets export data from India to all buying countries. Users can also find here Stainless Steels 304 Sheets manufacturers, Stainless Steels 304 Sheets exporters, global buyers etc. Our platform also helps you to figure out the right target market to export Stainless Steels 304 Sheets and arrange export order, know about the procedure and formalities for export and help you in Stainless Steels 304 Sheets shipment and logistics. Our trade experts are always available for any help regarding the export of Stainless Steels 304 Sheets and its products. If you want more information, please get in touch with our trade experts here.

People Also Ask

Which is the most popular Indian port for Stainless Steels 304 Sheets export?

Vizac Sea is the most popular port for Stainless Steels 304 Sheets export from India

What are the top three export shipments of Stainless Steels 304 Sheets traded from India?

Following are the top three export shipments of Stainless Steels 304 Sheets traded from India :

  • HOT ROLLED STAINLESS STEEL WIDE SHEETS (HAVING NI>8%) 10MMX1500MMX6000 - 304/NO1/TRIM EDGE FR.PR.SS.WIDT.600MM
  • HOT ROLLED STAINLESS STEEL WIDE SHEETS (HAVING NI>8%) 8MMX1500MMX6000 - 304/NO1/TRIM EDGE FR.PR.SS.WIDT.600MM
  • HOT ROLLED STAINLESS STEEL WIDE SHEETS (HAVING NI>8%) 3MMX1250MMX2500 - 304/NO1/TRIM EDGE FR.PR.SS.WIDT.600MM